STARLINK-1572, 46060

Orbit data source: Space-Track

STARLINK-1572, 46060 is a payload satellite owned by SpaceX/Seattle (US) in LEO that was launched on Fri, 07 Aug 2020 UTC via an FALCON 9 launch vehicle from the Air Force Eastern Test Range (AFETR). Payload-class satellites include a variety of spacecraft equipped with specific instruments for various scientific and technological missions. These include communications satellites like Starlink; space stations such as the ISS; scientific satellites like the Hubble; Earth observation satellites from companies like Planet Labs, Umbra, and HawkEye 360; GPS; miniature CubeSats for education and research; and military/defense satellites.

Loading next visibility...
Identifier
46060, 2020-055AK
Orbit
LEO
Country
Flag of USUS
Related business
Manufacturer
SpaceX/Seattle
Mission
Operational Commercial Communications
Bus & Motor
STARLINK, Unknown motor
Mass
260 kg wet, ~248 kg dry
Launch date (UTC)
2020-08-07 (5 years ago)
Launch vehicle
FALCON 9
Launch site
Air Force Eastern Test Range (AFETR)
Object type
Payload
Rocket body
Debris
Shape & HBR
Box + 1 Pan, 10.1 m
Radar Cross Section
13.562 m², Large (>1 m²)

Expand to show TLE details & history
Last TLE update: 18 hours ago

TLE from 18 hours ago
0 STARLINK-1572
1 46060U 20055AK  25305.40385548  .00000209  00000-0  32935-4 0  9997
2 46060  53.0544 332.5150 0001364  88.6338 271.4807 15.06390921289664
Epoch: 2025-11-01T09:41Z
TLE epoch observation values (Epoch: 2025-11-01T09:41:33.113Z)
Latitude
-0.00004°
Longitude
146.19257°
Altitude
548.094 km
Speed
7.589 km/s
True Right ascension
22h 10m 03s
True Declination
0° 00' 00"
Sunlit
Object was in full shadow at epoch
Visualization orbit readout
Latitude
Unknown
Longitude
Unknown
Altitude
Unknown
Speed
Unknown
Apparent Right ascension
Unknown
Apparent Declination
Unknown
Sunlit
N/A
Visualization observer readout
Local Sidereal Time
23:49:18
Azimuth
Unknown
Elevation
Unknown
Doppler factor
Unknown
Orbital elements
Apogee altitude
548.455 km
Perigee altitude
546.565 km
Semi-major axis
6,925.647 km
Eccentricity
0.00014
Inclination
53.0544°
RAAN
332.515°
Arg. of periapsis
88.6338°
True anomaly
271.46507°
Mean anomaly
271.4807°
Eccentric anomaly
271.47289°
Mean motion
3.76576 °/min
Orbital period
95.6 mins
BSTAR
0.000032935
Loading maneuver chart data...
Computing Atmospheric mass density...
Loading historical data...
Loading historical data...
Loading historical data...
Loading historical data...
Loading historical data...
Loading historical data...
Loading historical data...

Documentation

Showing up to 5 results
|